This demonstration page uses our WeatherBlox Daily Observations layout. Learn more.

Left ArrowRight Arrow

36.17497, -115.13722

Hourly Observations for February 21, 2019

Temp ( °F °C ) Dew Point ( °F °C ) Humidity (%) Winds ( mph kmh ) Pressure ( in mb ) Visibility ( mi km ) Precip ( " mm )
12:17 am 00:17 Cloudy with Light Snow 33 0.6 32 0 96 96 S 5 7 29.72 1006 3 5 0.01 0.25
12:27 am 00:27 Cloudy with Light Snow 33 0.6 32 0 96 96 S 3 6 29.72 1006 2 3 0.01 0.25
12:38 am 00:38 Cloudy with Light Snow 33 0.6 32 0 96 96 S 3 6 29.71 1006 2 3 0.01 0.25
12:53 am 00:53 Cloudy with Light Snow 33 0.6 32 0 96 96 Calm 29.69 1005 3 4 0.01 0.25
1:13 am 01:13 Cloudy with Light Snow 33 0.6 33 0.6 100 100 Calm 29.70 1006 2 3 0.00 0.03
1:21 am 01:21 Cloudy with Light Snow 33 0.6 32 0 96 96 Calm 29.70 1006 3 4 0.00 0.03
1:30 am 01:30 Cloudy with Light Snow 33 0.6 31 -0.6 92 92 S 6 9 29.70 1006 4 6 0.00 0.03
1:53 am 01:53 Cloudy with Light Snow 33 0.6 32 0 96 96 SSE 5 7 29.67 1005 3 5 0.01 0.25
2:19 am 02:19 Cloudy with Light Snow 33 0.6 32 0 96 96 Calm 29.69 1005 2 3 0.00 0.03
2:32 am 02:32 Cloudy with Light Snow 33 0.6 32 0 96 96 Calm 29.69 1005 4 6 0.00 0.03
2:53 am 02:53 Cloudy with Light Snow 33 0.6 33 0.6 100 100 Calm 29.66 1004 5 8 0.01 0.25
3:53 am 03:53 Cloudy with Light Snow 34 1.1 32 0 92 92 Calm 29.64 1004 4 6 0.01 0.25
4:06 am 04:06 Cloudy with Light Snow 34 1.1 33 0.6 97 97 Calm 29.65 1004 4 6 0.00 0.03
4:40 am 04:40 Cloudy with Light Snow 33 0.6 32 0 96 96 Calm 29.65 1004 3 4 0.01 0.25
4:53 am 04:53 Cloudy with Light Snow 33 0.6 32 0 96 96 Calm 29.63 1004 3 4 0.01 0.25
5:07 am 05:07 Cloudy with Light Snow 33 0.6 32 0 96 96 Calm 29.65 1004 2 3 0.01 0.25
5:29 am 05:29 Cloudy with Light Snow 33 0.6 32 0 96 96 Calm 29.65 1004 2 3 0.01 0.25
5:46 am 05:46 Cloudy with Light Snow 33 0.6 32 0 96 96 Calm 29.65 1004 2 2 0.01 0.25
5:53 am 05:53 Cloudy with Light Snow 33 0.6 31 -0.6 92 92 Calm 29.63 1003 2 2 0.01 0.25
6:48 am 06:48 Mostly Cloudy with Light Snow 34 1 30 -1 87 87 Calm 29.64 1004 1 2 0.00 0.03
6:53 am 06:53 Mostly Cloudy with Light Snow 33 0.6 31 -0.6 92 92 Calm 29.64 1004 1 2 0.00 0.03
7:05 am 07:05 Cloudy with Light Snow 33 0.6 32 0 96 96 Calm 29.65 1004 1 2 0.01 0.25
7:38 am 07:38 Cloudy with Light Snow 33 0.6 32 0 96 96 WNW 5 7 29.66 1004 2 2 0.01 0.25
7:53 am 07:53 Cloudy with Light Snow 33 0.6 32 0 96 96 WNW 6 9 29.65 1004 2 2 0.02 0.51
8:23 am 08:23 Cloudy with Light Snow 33 0.6 32 0 96 96 WNW 5 7 29.67 1005 2 3 0.03 0.76
8:40 am 08:40 Cloudy with Light Snow 34 1.1 33 0.6 97 97 WSW 3 6 29.66 1004 4 6 0.05 1.27
8:53 am 08:53 Cloudy 34 1.1 34 1.1 100 100 SW 5 7 29.66 1004 8 13 0.07 1.78
9:00 am 09:00 Cloudy 34 1.1 33 0.6 97 97 SW 5 7 29.65 1004 9 14 0.01 0.25
9:38 am 09:38 Cloudy 36 2.2 34 1.1 93 93 Calm 29.65 1004 3 5 0.08 2.03
9:53 am 09:53 Cloudy 36 2.2 34 1.1 93 93 Calm 29.66 1004 3 5 0.09 2.29
10:11 am 10:11 Cloudy 37 2.8 34 1.1 89 89 SSW 5 7 29.65 1004 3 5 0.00 0.00
10:20 am 10:20 Cloudy 37 2.8 34 1.1 89 89 SSW 5 7 29.65 1004 3 5 0.00 0.00
10:34 am 10:34 Cloudy 37 2.8 34 1.1 89 89 SW 5 7 29.65 1004 3 5 0.00 0.00
10:45 am 10:45 Cloudy 38 3.3 34 1.1 86 86 SW 3 6 29.64 1004 3 5 0.00 0.00
10:53 am 10:53 Cloudy 38 3.3 34 1.1 86 86 SW 5 7 29.66 1004 3 5 0.00 0.00
11:53 am 11:53 Cloudy 40 4.4 34 1.1 79 79 VRB 5 7 29.65 1004 10 16 0.00 0.00
12:01 pm 12:01 Cloudy 40 4.4 33 0.6 77 77 S 6 9 29.62 1003 10 16 0.00 0.00
12:33 pm 12:33 Partly Cloudy 40 4.4 34 1.1 79 79 VRB 3 6 29.61 1003 10 16 0.00 0.00
12:53 pm 12:53 Sunny 41 5 33 0.6 73 73 VRB 5 7 29.64 1004 10 16 0.00 0.00
1:35 pm 13:35 Cloudy with Light Rain 40 4.4 33 0.6 77 77 ENE 13 20 29.61 1003 10 16 0.00 0.03
1:53 pm 13:53 Cloudy with Light Rain 38 3.3 32 0 79 79 ESE 6 9 29.65 1004 6 10 0.01 0.25
2:02 pm 14:02 Cloudy 39 3.9 33 0.6 79 79 ESE 6 9 29.63 1003 10 16 0.00 0.03
2:38 pm 14:38 Cloudy with Light Rain 38 3.3 33 0.6 83 83 NE 10 17 29.64 1004 10 16 0.01 0.25
2:53 pm 14:53 Cloudy with Light Rain 37 2.8 33 0.6 86 86 NNE 8 13 29.68 1005 10 16 0.01 0.25
3:42 pm 15:42 Cloudy with Light Rain 36 2.2 33 0.6 89 89 NE 3 6 29.67 1005 9 14 0.02 0.51
3:53 pm 15:53 Cloudy with Light Rain 36 2.2 33 0.6 89 89 Calm 29.69 1005 10 16 0.03 0.76
4:53 pm 16:53 Cloudy 38 3.3 33 0.6 83 83 W 8 13 29.70 1006 10 16 0.00 0.03
5:53 pm 17:53 Cloudy 38 3.3 33 0.6 83 83 WNW 7 11 29.72 1006 10 16 0.00 0.00
6:53 pm 18:53 Mostly Cloudy 38 3.3 33 0.6 83 83 W 3 6 29.73 1007 10 16 0.00 0.00
7:53 pm 19:53 Cloudy 38 3.3 33 0.6 83 83 SSE 3 6 29.76 1008 10 16 0.00 0.00
8:53 pm 20:53 Cloudy 38 3.3 33 0.6 83 83 W 3 6 29.78 1009 10 16 0.00 0.00
9:53 pm 21:53 Cloudy 38 3.3 33 0.6 83 83 Calm 29.80 1009 10 16 0.00 0.00
10:53 pm 22:53 Mostly Clear 37 2.8 33 0.6 86 86 N 3 6 29.80 1009 10 16 0.00 0.00
11:53 pm 23:53 Cloudy 36 2.2 33 0.6 89 89 N 5 7 29.82 1010 10 16 0.00 0.00

Powered by AerisWeather